User: anonymous   Login
Location: Unspecified
(0.0000°N, 0.0000°E)
Time: 09:02:20
(UTC+00:00)
Language:

KH 9-17 ELINT - Orbit

View from above orbital plane
View from above orbital plane
View from above satellite
View from above satellite

Ground track
Ground track

The orbit data is extracted from the following two-line orbital elements,

1 13172U 82041C   20327.22679987 0.00000280  00000-0  29271-4 0    01
2 13172  95.9596 171.0021 0000500 328.3927  31.6071 14.89751622    03
Epoch (UTC): 22 November 2020 05:26:35
Eccentricity: 0.0000500
inclination: 95.9596°
perigee height: 598 km
apogee height: 599 km
right ascension of ascending node: 171.0021°
argument of perigee: 328.3927°
revolutions per day: 14.89751622
mean anomaly at epoch: 31.6071°
orbit number at epoch: 0

The dashed part of the orbit path shows where the satellite is in the earth's shadow,  

DLR